Location: Edinburgh
(55.9500°N, 3.1600°W)
Time: 23:33:57
(UTC+00:00)

Envisat - Visible Passes

Search period start: 16 February 2019 00:00
Search period end: 26 February 2019 00:00
Orbit: 764 x 766 km, 98.2° (Epoch: 16 February)

Date Brightness Start Highest point End Pass type
(mag) Time Alt. Az. Time Alt. Az. Time Alt. Az.
16 Feb 5.9 06:42:58 10° NE 06:46:53 22° E 06:50:47 10° SE visible
16 Feb 3.1 18:04:43 10° SE 18:09:42 58° ENE 18:14:42 10° N visible
16 Feb 5.0 19:44:41 10° SSW 19:49:04 29° W 19:53:28 10° NNW visible
17 Feb 6.4 06:07:47 10° ENE 06:09:34 12° E 06:11:20 10° ESE visible
17 Feb 3.9 19:07:05 10° S 19:12:02 52° W 19:17:02 10° NNW visible
18 Feb 3.0 18:30:06 10° SSE 18:35:12 87° ENE 18:40:19 10° NNW visible
18 Feb 5.7 20:11:21 10° SW 20:14:56 19° W 20:18:31 10° NW visible
19 Feb 6.0 06:32:01 10° NE 06:35:32 18° E 06:39:00 10° SE visible
19 Feb 3.2 17:53:39 10° SE 17:58:32 49° ENE 18:03:26 10° N visible
19 Feb 4.7 19:33:09 10° SSW 19:37:45 34° W 19:42:23 10° NNW visible
20 Feb 3.6 18:55:45 10° S 19:00:47 62° WSW 19:05:51 10° NNW visible
20 Feb 6.1 20:38:53 10° WSW 20:40:52 12° W 20:42:53 10° WNW visible
21 Feb 3.0 18:18:55 10° SSE 18:23:59 74° ENE 18:29:05 10° NNW visible
21 Feb 5.5 19:59:36 10° SW 20:03:34 23° W 20:07:33 10° NW visible
22 Feb 6.2 06:21:11 10° NE 06:24:09 15° E 06:27:06 10° ESE visible
22 Feb 4.4 19:21:40 10° SSW 19:26:27 40° W 19:31:16 10° NNW visible
23 Feb 3.3 18:44:27 10° S 18:49:32 74° WSW 18:54:39 10° NNW visible
23 Feb 6.0 20:26:40 10° WSW 20:29:29 15° W 20:32:18 10° NW visible
24 Feb 3.0 18:07:47 10° SSE 18:12:48 62° ENE 18:17:50 10° N visible
24 Feb 5.2 19:47:57 10° SSW 19:52:13 27° W 19:56:32 10° NNW visible
25 Feb 6.4 06:10:33 10° NE 06:12:45 13° E 06:14:57 10° ESE visible
25 Feb 4.1 19:10:16 10° S 19:15:10 48° W 19:20:07 10° NNW visible
